Location: Star Hoppers Observatory
(42.7905°N, 83.6127°W)
Time: 08:11:20
(UTC-04:00)

Amateur Radio Satellites - All Passes

Search period start: 29 May 2015 07:41
Search period end: 30 May 2015 07:41
Location: Star Hoppers Observatory, 42.7905°N, 83.6127°W

Satellite Date Start Highest point End Downlink Frequencies (MHz)
Time Altitude Azimuth
PHONESAT 2.4 29 May 07:44:43 07:47:35 24° 203° (SSW) 07:50:27 2401.200-2431.200
AIST 1 29 May 07:48:04 07:52:00 32° 75° (ENE) 07:55:59
AO-7 29 May 07:53:28 07:59:54 25° 307° (NW) 08:06:06 29.400- 29.500
Cubesat XI-IV 29 May 08:02:35 08:08:00 82° 102° (ESE) 08:13:24 437.490
CUBESAT XI-V 29 May 08:35:41 08:37:41 12° 273° (W) 08:39:28 437.345
Cosmos 2491 29 May 08:46:32 08:54:13 34° 275° (W) 09:01:40 435.465 / 435.565
GOMX 1 29 May 08:50:10 08:53:27 17° 87° (E) 08:56:50 467.674
PRISM 29 May 08:55:21 08:57:18 13° 271° (W) 08:59:02 437.425
BRITE-PL 29 May 08:59:01 09:04:03 33° 93° (E) 09:08:54 437.365/2234.400
M-CUBED/EXP-1 PRIME 29 May 09:05:41 09:08:05 15° 262° (W) 09:10:14 437.505
CANX-2 29 May 09:11:19 09:13:32 14° 89° (E) 09:15:55 2200.000
AUBIESAT-1 29 May 09:11:34 09:13:51 14° 262° (W) 09:15:54 437.475
CUTE 1.7 + AOD 2 29 May 09:14:33 09:16:40 14° 89° (E) 09:19:00 437.475
STRAND 1 29 May 09:14:52 09:17:38 14° 272° (W) 09:20:08 437.568
Cosmos 2504 29 May 09:18:21 09:23:29 19° 82° (E) 09:28:48 435.465 / 435.565
CUTE-I 29 May 09:22:12 09:26:20 22° 297° (WNW) 09:30:19 437.470
AIST 1 29 May 09:26:04 09:29:30 22° 271° (W) 09:32:51
RS-15 29 May 09:31:57 09:42:38 68° 117° (ESE) 09:53:41 29.354- 29.394
SEEDS 29 May 09:32:38 09:35:29 18° 91° (E) 09:38:27 437.485
YUBILEINY 29 May 09:37:35 09:45:42 39° 290° (WNW) 09:53:42 435.215
DOVE 4 29 May 09:38:06 09:42:32 30° 93° (E) 09:46:48 437.250
HO-68 29 May 09:41:43 09:48:15 38° 96° (E) 09:54:50 435.675
COMPASS 1 29 May 09:41:50 09:44:40 18° 91° (E) 09:47:39 437.405
Cubesat XI-IV 29 May 09:44:26 09:47:29 15° 300° (WNW) 09:50:20 437.490
PCSat 29 May 09:44:28 09:49:36 41° 52° (NE) 09:54:43 145.827
AAUSAT CUBESAT 2 29 May 09:51:39 09:54:42 20° 92° (E) 09:57:50 437.432
TIGRISAT 29 May 10:10:24 10:13:25 18° 65° (ENE) 10:16:34 435.000
UWE-3 29 May 10:16:28 10:18:19 13° 87° (E) 10:20:23 435.000/436.395/437.385
FUNcube-1 29 May 10:20:52 10:21:21 10° 86° (E) 10:22:08 145.935
GOMX 1 29 May 10:26:50 10:32:10 62° 286° (WNW) 10:37:08 467.674
UNISAT 6 29 May 10:30:55 10:34:52 28° 69° (ENE) 10:38:51 437.425
NANOSAT C BR1 29 May 10:34:20 10:36:20 13° 63° (ENE) 10:38:32 145.865
CINEMA 3 29 May 10:34:38 10:39:14 53° 98° (E) 10:43:37 145.822/145.860
BRITE-PL 29 May 10:37:26 10:42:33 36° 292° (WNW) 10:47:24 437.365/2234.400
SO-50 29 May 10:41:21 10:44:44 18° 36° (NE) 10:48:12 436.795
QB50P2 29 May 10:43:27 10:46:12 17° 65° (ENE) 10:49:06 145.880/145.840
CANX-2 29 May 10:45:44 10:49:49 50° 287° (WNW) 10:53:53 2200.000
CUTE 1.7 + AOD 2 29 May 10:48:52 10:52:57 51° 287° (WNW) 10:57:02 437.475
DUCHIFAT 1 29 May 10:54:24 10:57:33 21° 67° (ENE) 11:00:50 145.980
POPSAT HIP 1 29 May 10:54:31 10:57:45 22° 67° (ENE) 11:01:06 437.405
UKube-1 29 May 10:57:58 10:59:34 12° 88° (E) 11:01:24 .
ZACube-1 29 May 10:59:50 11:03:36 29° 95° (E) 11:07:20 437.345
Oscar 11 29 May 11:06:03 11:10:20 62° 101° (E) 11:14:35 145.826/435.025
BUGSAT 1 29 May 11:06:05 11:09:01 19° 66° (ENE) 11:12:05 437.445
SEEDS 29 May 11:07:35 11:11:29 38° 288° (WNW) 11:15:21 437.485
Cosmos 2504 29 May 11:07:49 11:16:08 83° 279° (W) 11:23:53 435.465 / 435.565
CUBEBUG 2 29 May 11:09:06 11:13:31 61° 100° (E) 11:17:45 437.445
DX 1 29 May 11:09:26 11:12:23 18° 92° (E) 11:15:28 434.975-435.025
ANTELSAT 29 May 11:13:30 11:18:10 76° 75° (ENE) 11:22:48 437.575/2403.000
DOVE 4 29 May 11:15:45 11:20:17 32° 292° (WNW) 11:24:32 437.250
COMPASS 1 29 May 11:16:41 11:20:32 37° 288° (WNW) 11:24:22 437.405
AAUSAT CUBESAT 2 29 May 11:26:40 11:30:26 34° 289° (WNW) 11:34:09 437.432
PCSat 29 May 11:28:09 11:32:54 31° 250° (WSW) 11:37:33 145.827
HO-68 29 May 11:29:22 11:36:05 44° 295° (WNW) 11:42:42 435.675
VELOX 1 29 May 11:33:40 11:36:30 17° 90° (E) 11:39:29 145.980
DELFI C3 29 May 11:36:17 11:40:19 80° 284° (WNW) 11:44:19 145.870
QB50P1 29 May 11:37:07 11:41:20 61° 74° (ENE) 11:45:36 145.935-145.965
POLYITAN 1 29 May 11:40:31 11:44:48 68° 74° (ENE) 11:49:07 437.675
TIGRISAT 29 May 11:45:14 11:49:50 53° 261° (W) 11:54:22 435.000
RS-15 29 May 11:45:33 11:55:50 42° 323° (NW) 12:06:23 29.354- 29.394
ESTCUBE 1 29 May 11:47:01 11:49:23 14° 89° (E) 11:51:57 437.505/2401.250
CUSAT 1 29 May 11:48:34 11:51:51 14° 78° (ENE) 11:55:47 437.405
UWE-3 29 May 11:51:03 11:55:22 58° 286° (WNW) 11:59:32 435.000/436.395/437.385
FUNcube-1 29 May 11:54:01 11:58:19 70° 285° (WNW) 12:02:30 145.935
AISAT 29 May 12:05:17 12:09:27 37° 97° (E) 12:13:38 437.250
UNISAT 6 29 May 12:07:24 12:11:35 31° 265° (W) 12:15:41 437.425
NANOSAT C BR1 29 May 12:07:28 12:11:43 63° 259° (W) 12:16:00 145.865
HUMSAT D 29 May 12:08:21 12:12:32 79° 102° (ESE) 12:16:38 437.325/437.525
CINEMA 3 29 May 12:12:53 12:16:01 17° 296° (WNW) 12:18:55 145.822/145.860
GONETS M04 29 May 12:13:31 12:18:21 17° 78° (ENE) 12:23:44
QB50P2 29 May 12:17:38 12:21:47 46° 261° (W) 12:25:57 145.880/145.840
SO-50 29 May 12:20:59 12:25:59 87° 242° (WSW) 12:30:54 436.795
50 SAT 29 May 12:28:11 12:32:05 75° 102° (ESE) 12:35:55 437.505
DUCHIFAT 1 29 May 12:29:11 12:33:10 37° 263° (W) 12:37:09 145.980
POPSAT HIP 1 29 May 12:29:28 12:33:26 36° 263° (W) 12:37:25 437.405
UKube-1 29 May 12:31:53 12:36:13 64° 286° (WNW) 12:40:30 .
ZACube-1 29 May 12:36:19 12:39:53 25° 292° (WNW) 12:43:18 437.345
BUGSAT 1 29 May 12:40:18 12:44:13 39° 262° (W) 12:48:12 437.445
Oscar 11 29 May 12:43:53 12:46:03 13° 297° (WNW) 12:48:03 145.826/435.025
DX 1 29 May 12:44:42 12:48:53 43° 289° (WNW) 12:53:03 434.975-435.025
CUBEBUG 2 29 May 12:47:19 12:49:43 14° 297° (WNW) 12:51:54 437.445
Oscar 19 29 May 12:53:42 12:57:06 18° 62° (ENE) 13:00:39 437.125/150
ANTELSAT 29 May 12:53:53 12:55:33 11° 273° (W) 12:56:56 437.575/2403.000
CUBEBUG 1 29 May 12:59:24 13:03:52 72° 102° (ESE) 13:08:18 437.445
Cosmos 2504 29 May 13:05:50 13:10:50 17° 300° (WNW) 13:15:16 435.465 / 435.565
VELOX 1 29 May 13:09:02 13:13:23 48° 288° (WNW) 13:17:40 145.980
DANDE 29 May 13:12:57 13:19:53 45° 89° (E) 13:27:52 436.750
QB50P1 29 May 13:15:45 13:17:41 12° 272° (W) 13:19:23 145.935-145.965
POLYITAN 1 29 May 13:19:48 13:21:15 11° 273° (W) 13:22:27 437.675
ESTCUBE 1 29 May 13:22:14 13:26:42 58° 287° (WNW) 13:31:09 437.505/2401.250
CUSAT 1 29 May 13:25:39 13:33:09 67° 95° (E) 13:41:27 437.405
SPROUT 29 May 13:28:08 13:32:15 41° 98° (E) 13:36:20 437.525
TISAT 1 29 May 13:40:59 13:45:02 40° 98° (E) 13:49:03 437.305
AISAT 29 May 13:42:18 13:45:51 23° 294° (WNW) 13:49:18 437.250
HUMSAT D 29 May 13:47:13 13:47:42 10° 298° (WNW) 13:47:58 437.325/437.525
RS-15 29 May 14:03:47 14:12:20 24° 356° (N) 14:21:07 29.354- 29.394
SO-50 29 May 14:04:18 14:05:52 11° 252° (WSW) 14:07:09 436.795
GONETS M04 29 May 14:05:10 14:14:01 84° 96° (E) 14:22:55
Gurwin Techsat 1B 29 May 14:06:15 14:10:22 24° 65° (ENE) 14:14:38 435.225
ITUPSAT 1 29 May 14:13:58 14:16:42 15° 89° (E) 14:19:38 437.325
BEESAT 29 May 14:19:33 14:22:44 18° 91° (E) 14:26:03 436.000
SWISSCUBE 29 May 14:28:02 14:31:50 24° 93° (E) 14:35:44 437.505
Oscar 19 29 May 14:30:51 14:36:00 63° 259° (WSW) 14:41:11 437.125/150
CUBEBUG 1 29 May 14:37:41 14:39:42 13° 298° (WNW) 14:41:32 437.445
ITAMSAT 1 29 May 14:50:57 14:56:02 62° 73° (ENE) 15:01:11 435.822/435.867
DANDE 29 May 14:55:56 15:03:11 45° 291° (WNW) 15:11:16 436.750
SPROUT 29 May 15:04:55 15:08:04 19° 294° (WNW) 15:11:06 437.525
AO-7 29 May 15:08:31 15:15:15 30° 56° (NE) 15:22:11 29.400- 29.500
HORYU 2 29 May 15:09:30 15:11:52 15° 63° (ENE) 15:14:25 437.375
CUSAT 1 29 May 15:09:46 15:16:34 30° 296° (WNW) 15:23:36 437.405
O/OREOS (USA 219) 29 May 15:15:25 15:18:49 22° 103° (ESE) 15:22:19 437.305
KKS-1 29 May 15:17:17 15:18:46 12° 88° (E) 15:20:31 437.445
TISAT 1 29 May 15:17:27 15:20:33 19° 294° (WNW) 15:23:31 437.305
JAS-2 29 May 15:22:22 15:27:27 27° 66° (ENE) 15:32:14 435.910
Cosmos 2499 29 May 15:29:27 15:37:16 58° 93° (E) 15:44:34 435.465 / 435.565
Gurwin Techsat 1B 29 May 15:45:00 15:50:06 47° 261° (W) 15:55:14 435.225
ITUPSAT 1 29 May 15:50:20 15:55:03 59° 287° (WNW) 15:59:46 437.325
BEESAT 29 May 15:56:17 16:00:55 50° 289° (WNW) 16:05:31 436.000
SWISSCUBE 29 May 16:05:24 16:09:51 38° 290° (WNW) 16:14:14 437.505
GONETS M04 29 May 16:05:26 16:12:10 22° 299° (WNW) 16:18:34
STARS 29 May 16:12:46 16:16:36 28° 95° (E) 16:20:26 437.465
RS-15 29 May 16:19:17 16:29:22 35° 30° (NNE) 16:40:00 29.354- 29.394
ITAMSAT 1 29 May 16:32:43 16:36:04 17° 271° (W) 16:39:13 435.822/435.867
HORYU 2 29 May 16:43:37 16:48:04 62° 258° (WSW) 16:52:31 437.375
DANDE 29 May 16:48:00 16:49:10 10° 314° (NW) 16:49:43 436.750
KKS-1 29 May 16:51:30 16:55:59 69° 286° (WNW) 17:00:24 437.445
O/OREOS (USA 219) 29 May 16:53:49 16:58:02 38° 299° (WNW) 17:02:14 437.305
AO-7 29 May 16:59:13 17:07:29 70° 255° (WSW) 17:15:49 29.400- 29.500
MOZHAYETS 4 29 May 17:05:36 17:08:06 15° 89° (E) 17:10:48
JAS-2 29 May 17:06:01 17:12:24 51° 260° (W) 17:18:04 435.910
Cosmos 2499 29 May 17:24:06 17:30:52 29° 292° (WNW) 17:37:05 435.465 / 435.565
CUTE-I 29 May 17:27:29 17:29:57 14° 59° (ENE) 17:32:40 437.470
BEESAT 3 29 May 17:37:38 17:41:02 26° 115° (ESE) 17:44:32 437.485
Cubesat XI-IV 29 May 17:47:27 17:51:13 21° 63° (ENE) 17:55:10 437.490
STARS 29 May 17:49:12 17:53:00 28° 292° (WNW) 17:56:43 437.465
YUBILEINY 29 May 17:49:51 17:56:29 24° 62° (ENE) 18:03:23 435.215
Cosmos 2491 29 May 18:02:47 18:04:06 11° 73° (ENE) 18:06:11 435.465 / 435.565
BEESAT 2 29 May 18:29:35 18:33:41 77° 122° (ESE) 18:37:51 435.950
RS-15 29 May 18:31:56 18:43:38 88° 58° (ENE) 18:55:48 29.354- 29.394
AIST 2 29 May 18:38:46 18:42:22 28° 115° (ESE) 18:46:04 435.215
MOZHAYETS 4 29 May 18:41:16 18:45:46 56° 287° (WNW) 18:50:14
CUBESAT XI-V 29 May 18:52:06 18:55:01 17° 89° (E) 18:58:07 437.345
AO-7 29 May 18:58:19 19:02:02 13° 276° (W) 19:05:05 29.400- 29.500
CUTE-I 29 May 19:04:02 19:09:21 89° 255° (WSW) 19:14:44 437.470
BEESAT 3 29 May 19:15:14 19:18:56 32° 312° (NW) 19:22:40 437.485
Cubesat XI-IV 29 May 19:25:43 19:30:57 57° 259° (W) 19:36:13 437.490
STRAND 1 29 May 19:43:08 19:47:05 23° 92° (E) 19:51:10 437.568
YUBILEINY 29 May 19:45:41 19:54:24 76° 265° (W) 20:03:03 435.215
Cosmos 2491 29 May 19:50:44 19:59:19 62° 92° (E) 20:08:01 435.465 / 435.565
GOMX 1 29 May 19:58:28 20:02:20 22° 64° (ENE) 20:06:27 467.674
CANX-2 29 May 20:05:59 20:07:48 13° 64° (ENE) 20:09:47 2200.000
CUTE 1.7 + AOD 2 29 May 20:09:11 20:10:53 12° 64° (ENE) 20:12:47 437.475
BEESAT 2 29 May 20:09:46 20:12:19 15° 322° (NW) 20:14:47 435.950
BRITE-PL 29 May 20:09:59 20:14:48 39° 69° (ENE) 20:19:59 437.365/2234.400
HO-68 29 May 20:11:30 20:17:36 32° 61° (ENE) 20:23:52 435.675
AIST 2 29 May 20:16:59 20:20:53 33° 312° (NW) 20:24:47 435.215
AIST 1 29 May 20:19:25 20:22:16 18° 88° (E) 20:25:17
SEEDS 29 May 20:26:14 20:28:39 16° 65° (ENE) 20:31:14 437.485
CUBESAT XI-V 29 May 20:28:14 20:32:50 53° 287° (WNW) 20:37:25 437.345
PRISM 29 May 20:34:02 20:38:14 81° 104° (ESE) 20:42:24 437.425
COMPASS 1 29 May 20:34:38 20:37:01 15° 65° (ENE) 20:39:31 437.405
DOVE 4 29 May 20:43:39 20:48:20 35° 69° (ENE) 20:53:11 437.250
AAUSAT CUBESAT 2 29 May 20:43:56 20:46:30 16° 66° (ENE) 20:49:11 437.432
M-CUBED/EXP-1 PRIME 29 May 20:44:20 20:47:08 25° 102° (ESE) 20:50:00 437.505
RS-15 29 May 20:45:47 20:54:57 26° 256° (WSW) 21:03:50 29.354- 29.394
CUTE-I 29 May 20:48:45 20:50:20 11° 275° (W) 20:51:33 437.470
AUBIESAT-1 29 May 20:49:34 20:52:22 25° 102° (ESE) 20:55:14 437.475
Cosmos 2504 29 May 20:59:38 21:06:03 35° 70° (ENE) 21:12:34 435.465 / 435.565
UWE-3 29 May 21:14:23 21:16:49 15° 64° (ENE) 21:19:26 435.000/436.395/437.385
FUNcube-1 29 May 21:17:14 21:18:42 12° 62° (ENE) 21:20:22 145.935
STRAND 1 29 May 21:21:38 21:26:33 46° 290° (WNW) 21:31:26 437.568
GOMX 1 29 May 21:34:53 21:40:01 56° 261° (W) 21:45:25 467.674
CINEMA 3 29 May 21:36:15 21:41:08 55° 73° (ENE) 21:46:05 145.822/145.860
CANX-2 29 May 21:39:02 21:43:16 64° 260° (W) 21:47:31 2200.000
CUTE 1.7 + AOD 2 29 May 21:42:06 21:46:20 66° 259° (W) 21:50:34 437.475
YUBILEINY 29 May 21:45:26 21:49:53 14° 284° (WNW) 21:53:45 435.215
BRITE-PL 29 May 21:48:53 21:53:26 29° 268° (W) 21:58:09 437.365/2234.400
Cosmos 2491 29 May 21:49:11 21:56:51 31° 294° (WNW) 22:04:23 435.465 / 435.565
UKube-1 29 May 21:54:03 21:55:54 13° 62° (ENE) 21:57:56 .
AIST 1 29 May 21:55:42 21:59:40 37° 284° (WNW) 22:03:41
ZACube-1 29 May 21:56:21 22:00:15 29° 69° (ENE) 22:04:12 437.345
HO-68 29 May 21:58:04 22:05:05 54° 260° (W) 22:12:05 435.675
SEEDS 29 May 21:59:59 22:04:06 50° 261° (W) 22:08:13 437.485
Oscar 11 29 May 22:01:25 22:05:37 53° 73° (ENE) 22:09:51 145.826/435.025
DX 1 29 May 22:06:10 22:09:07 18° 65° (ENE) 22:12:12 434.975-435.025
CUBEBUG 2 29 May 22:07:24 22:12:05 58° 74° (ENE) 22:16:45 437.445
COMPASS 1 29 May 22:08:15 22:12:20 50° 261° (W) 22:16:24 437.405
ISS 29 May 22:10:23 22:11:08 11° 131° (SE) 22:12:00 145.825
PRISM 29 May 22:12:31 22:13:07 10° 299° (WNW) 22:13:30 437.425
AAUSAT CUBESAT 2 29 May 22:17:47 22:21:48 45° 262° (W) 22:25:48 437.432
M-CUBED/EXP-1 PRIME 29 May 22:19:36 22:21:55 17° 297° (WNW) 22:24:09 437.505
DOVE 4 29 May 22:21:29 22:26:06 31° 267° (W) 22:30:46 437.250
DELFI C3 29 May 22:24:07 22:28:07 68° 75° (ENE) 22:32:07 145.870
AUBIESAT-1 29 May 22:24:45 22:27:05 18° 297° (WNW) 22:29:20 437.475
VELOX 1 29 May 22:32:24 22:35:18 18° 65° (ENE) 22:38:22 145.980
ESTCUBE 1 29 May 22:47:52 22:50:27 16° 64° (ENE) 22:53:12 437.505/2401.250
UWE-3 29 May 22:48:12 22:52:52 68° 259° (W) 22:57:32 435.000/436.395/437.385
FUNcube-1 29 May 22:49:50 22:54:26 83° 255° (WSW) 22:59:00 145.935
Cosmos 2504 29 May 22:52:52 22:59:34 42° 270° (W) 23:06:12 435.465 / 435.565
HUMSAT D 29 May 23:00:28 23:04:44 61° 74° (ENE) 23:08:59 437.325/437.525
AISAT 29 May 23:03:48 23:07:53 37° 70° (ENE) 23:12:03 437.250
ANTELSAT 29 May 23:06:31 23:08:43 14° 89° (E) 23:11:05 437.575/2403.000
50 SAT 29 May 23:13:22 23:17:11 46° 73° (ENE) 23:21:01 437.505
CINEMA 3 29 May 23:15:10 23:18:43 18° 271° (W) 23:22:05 145.822/145.860
UKube-1 29 May 23:27:14 23:31:32 68° 258° (WSW) 23:35:52 .
POLYITAN 1 29 May 23:28:12 23:28:46 10° 87° (E) 23:29:35 437.675
ZACube-1 29 May 23:32:31 23:36:34 30° 265° (W) 23:40:33 437.345
TIGRISAT 29 May 23:36:40 23:40:25 28° 95° (E) 23:44:10 435.000
Oscar 11 29 May 23:39:43 23:42:11 14° 271° (W) 23:44:27 145.826/435.025
DX 1 29 May 23:40:52 23:45:04 45° 261° (W) 23:49:17 434.975-435.025
ISS 29 May 23:43:52 23:47:07 88° 147° (SSE) 23:50:23 145.825
CUBEBUG 2 29 May 23:46:11 23:49:10 16° 271° (W) 23:51:58 437.445
NANOSAT C BR1 29 May 23:52:26 23:55:30 20° 92° (E) 23:58:40 145.865
DANDE 29 May 23:55:17 00:02:17 37° 66° (ENE) 00:07:58 436.750
CUBEBUG 1 29 May 23:56:07 00:00:26 65° 74° (ENE) 00:04:49 437.445
UNISAT 6 29 May 23:58:11 00:02:27 51° 99° (E) 00:06:38 437.425
QB50P2 30 May 00:02:29 00:06:03 26° 94° (E) 00:09:40 145.880/145.840
CUSAT 1 30 May 00:05:25 00:12:17 51° 72° (ENE) 00:17:34 437.405
VELOX 1 30 May 00:07:14 00:11:32 48° 261° (W) 00:15:52 145.980
DUCHIFAT 1 30 May 00:13:02 00:16:52 32° 96° (E) 00:20:41 145.980
POPSAT HIP 1 30 May 00:13:44 00:17:37 33° 96° (E) 00:21:29 437.405
GONETS M04 30 May 00:14:47 00:23:03 44° 72° (ENE) 00:31:18
BUGSAT 1 30 May 00:21:49 00:25:29 28° 95° (E) 00:29:09 437.445
ESTCUBE 1 30 May 00:22:30 00:26:55 57° 260° (W) 00:31:21 437.505/2401.250
SPROUT 30 May 00:23:03 00:26:58 35° 71° (ENE) 00:30:58 437.525
PCSat 30 May 00:27:25 00:32:02 30° 110° (ESE) 00:36:46 145.827
TISAT 1 30 May 00:33:54 00:37:43 34° 70° (ENE) 00:41:37 437.305
HUMSAT D 30 May 00:39:00 00:40:56 12° 272° (W) 00:42:39 437.325/437.525
AISAT 30 May 00:41:08 00:44:37 22° 267° (W) 00:48:02 437.250
ANTELSAT 30 May 00:41:40 00:45:57 53° 287° (WNW) 00:50:07 437.575/2403.000
50 SAT 30 May 00:50:00 00:52:11 14° 270° (W) 00:54:13 437.505
QB50P1 30 May 00:57:08 01:01:26 79° 285° (WNW) 01:05:41 145.935-145.965
POLYITAN 1 30 May 01:00:58 01:05:16 71° 285° (WNW) 01:09:29 437.675
VERMONT LUNAR 30 May 01:01:46 01:03:56 17° 153° (SSE) 01:06:07 437.305
BEESAT 2 30 May 01:12:43 01:13:12 10° 32° (NNE) 01:13:50 435.950
TIGRISAT 30 May 01:13:27 01:17:08 26° 292° (WNW) 01:20:40 435.000
Cosmos 2499 30 May 01:20:28 01:25:02 18° 62° (ENE) 01:29:57 435.465 / 435.565
ISS 30 May 01:21:12 01:23:52 23° 345° (NNW) 01:26:32 145.825
ITUPSAT 1 30 May 01:21:34 01:25:00 21° 65° (ENE) 01:28:34 437.325
O/OREOS (USA 219) 30 May 01:23:25 01:27:45 48° 62° (ENE) 01:32:06 437.305
BEESAT 30 May 01:26:51 01:30:32 24° 66° (ENE) 01:34:20 436.000
NANOSAT C BR1 30 May 01:27:32 01:31:30 37° 289° (WNW) 01:35:24 145.865
SWISSCUBE 30 May 01:35:25 01:39:30 30° 68° (ENE) 01:43:41 437.505
CUBEBUG 1 30 May 01:35:35 01:37:21 12° 272° (W) 01:38:52 437.445
UNISAT 6 30 May 01:36:07 01:38:52 16° 296° (WNW) 01:41:26 437.425
QB50P2 30 May 01:38:13 01:41:57 28° 291° (WNW) 01:45:34 145.880/145.840
DANDE 30 May 01:38:37 01:45:39 42° 271° (W) 01:51:09 436.750
CUSAT 1 30 May 01:48:58 01:54:22 25° 277° (W) 01:58:40 437.405
DUCHIFAT 1 30 May 01:49:06 01:52:33 23° 293° (WNW) 01:55:53 145.980
POPSAT HIP 1 30 May 01:49:55 01:53:20 23° 293° (WNW) 01:56:37 437.405
BEESAT 3 30 May 01:55:15 01:58:36 24° 44° (NE) 02:01:57 437.485
BUGSAT 1 30 May 01:57:15 02:00:54 27° 291° (WNW) 02:04:26 437.445
SPROUT 30 May 01:59:48 02:03:10 21° 267° (W) 02:06:29 437.525
PHONESAT 2.4 30 May 02:09:30 02:11:47 17° 152° (SSE) 02:14:07 2401.200-2431.200
PCSat 30 May 02:10:12 02:15:20 42° 308° (NW) 02:20:29 145.827
TISAT 1 30 May 02:10:15 02:13:36 22° 267° (W) 02:16:53 437.305
GONETS M04 30 May 02:11:48 02:19:56 43° 272° (W) 02:27:52
KKS-1 30 May 02:16:24 02:18:30 14° 62° (ENE) 02:20:47 437.445
SO-50 30 May 02:36:48 02:40:35 25° 113° (ESE) 02:44:35 436.795
VERMONT LUNAR 30 May 02:37:36 02:40:42 45° 169° (S) 02:43:49 437.305
Oscar 19 30 May 02:41:42 02:46:36 43° 98° (E) 02:51:30 437.125/150
BEESAT 2 30 May 02:48:08 02:52:13 59° 53° (NE) 02:56:13 435.950
ITUPSAT 1 30 May 02:58:03 03:02:37 46° 261° (W) 03:07:13 437.325
ISS 30 May 02:58:48 03:01:05 17° 5° (N) 03:03:23 145.825
AIST 2 30 May 02:59:27 03:03:01 26° 45° (NE) 03:06:37 435.215
BEESAT 30 May 03:03:43 03:08:11 40° 262° (W) 03:12:40 436.000
ITAMSAT 1 30 May 03:03:46 03:07:35 21° 91° (E) 03:11:32 435.822/435.867
O/OREOS (USA 219) 30 May 03:03:54 03:06:51 17° 259° (WSW) 03:09:36 437.305
STARS 30 May 03:10:28 03:14:16 29° 68° (ENE) 03:18:09 437.465
Cosmos 2499 30 May 03:12:06 03:19:10 79° 264° (W) 03:26:23 435.465 / 435.565
SWISSCUBE 30 May 03:13:09 03:17:21 30° 265° (W) 03:21:30 437.505
BEESAT 3 30 May 03:32:55 03:36:42 37° 243° (WSW) 03:40:25 437.485
PHONESAT 2.4 30 May 03:46:06 03:49:27 45° 168° (SSE) 03:52:48 2401.200-2431.200
KKS-1 30 May 03:50:09 03:54:38 69° 259° (W) 03:59:07 437.445
Gurwin Techsat 1B 30 May 04:00:03 04:05:21 66° 101° (ESE) 04:10:39 435.225
MOZHAYETS 4 30 May 04:08:39 04:11:27 17° 65° (ENE) 04:14:23
VERMONT LUNAR 30 May 04:14:33 04:17:43 54° 186° (S) 04:20:51 437.305
JAS-2 30 May 04:15:09 04:18:18 17° 90° (E) 04:21:46 435.910
SO-50 30 May 04:16:25 04:20:55 43° 311° (NW) 04:25:35 436.795
Oscar 19 30 May 04:21:34 04:25:45 25° 295° (WNW) 04:29:49 437.125/150
BEESAT 2 30 May 04:27:45 04:29:52 13° 249° (WSW) 04:31:47 435.950
HORYU 2 30 May 04:34:38 04:38:07 23° 93° (E) 04:41:42 437.375
ISS 30 May 04:35:06 04:38:10 37° 24° (NNE) 04:41:15 145.825
AIST 2 30 May 04:37:49 04:41:42 36° 244° (WSW) 04:45:29 435.215
ITAMSAT 1 30 May 04:42:22 04:47:25 51° 289° (WNW) 04:52:28 435.822/435.867
STARS 30 May 04:46:50 04:50:41 28° 265° (W) 04:54:31 437.465
AO-7 30 May 05:00:02 05:07:41 39° 97° (E) 05:15:24 29.400- 29.500
Cosmos 2499 30 May 05:08:36 05:11:17 12° 281° (W) 05:13:28 435.465 / 435.565
PHONESAT 2.4 30 May 05:23:58 05:27:23 58° 185° (S) 05:30:48 2401.200-2431.200
Gurwin Techsat 1B 30 May 05:41:15 05:44:52 18° 298° (WNW) 05:48:18 435.225
MOZHAYETS 4 30 May 05:43:49 05:48:18 54° 261° (W) 05:52:48
VERMONT LUNAR 30 May 05:51:54 05:54:35 24° 202° (SSW) 05:57:15 437.305
CUBESAT XI-V 30 May 05:56:37 05:59:42 18° 65° (ENE) 06:02:56 437.345
JAS-2 30 May 05:58:52 06:03:58 59° 287° (WNW) 06:09:15 435.910
Cosmos 2491 30 May 06:00:25 06:08:02 32° 67° (ENE) 06:15:45 435.465 / 435.565
SO-50 30 May 06:01:46 06:02:50 11° 334° (NNW) 06:03:46 436.795
HORYU 2 30 May 06:10:50 06:14:52 34° 290° (WNW) 06:18:50 437.375
ISS 30 May 06:11:35 06:14:33 32° 222° (SW) 06:17:31 145.825
AO-7 30 May 06:52:42 07:00:42 51° 296° (WNW) 07:08:39 29.400- 29.500
YUBILEINY 30 May 06:52:54 06:59:35 26° 83° (E) 07:06:33 435.215
STRAND 1 30 May 06:59:40 07:04:14 35° 68° (ENE) 07:08:53 437.568
PHONESAT 2.4 30 May 07:02:10 07:05:13 28° 201° (SSW) 07:08:15 2401.200-2431.200
CUTE-I 30 May 07:20:34 07:25:26 34° 96° (E) 07:30:20 437.470
PRISM 30 May 07:24:45 07:28:47 65° 74° (ENE) 07:32:52 437.425
CUBESAT XI-V 30 May 07:32:20 07:36:48 49° 261° (W) 07:41:19 437.345
M-CUBED/EXP-1 PRIME 30 May 07:32:51 07:36:48 49° 69° (ENE) 07:40:27 437.505
